• Join FlightAware (Why Join?)
  • Login
  • US Flag 
09:31PM EST


 

Airport Tracker/Info


-or-


 

Live Flight TrackerFlight Track Log ✈ UPS1139 ✈ 05-Aug-2013 ✈ KSYR - KPHL

Flight Track Log - Related Links

Times and Time Zones

All times are in EDT time to prevent confusion due to time zone crossing. See the UPS1139 flight status page for this flight to view local times or setup timezone preferences in your user account.

Time Position Orientation Groundspeed Altitude Reporting Facility
EDT Latitude Longitude Course Direction KTS MPH feet Rate Location/Type
10:28PM 43.1086 -76.1006 84° East 144 166 1,200  Level Boston Center
10:29PM 43.1122 -76.0553 84° East 184 212 3,100 2,563 Climbing Boston Center
10:30PM 43.0653 -76.0242 154° Southeast 253 291 5,600 2,561 Climbing Boston Center
10:32PM 42.9725 -76.1189 217° Southwest 289 333 9,800 1,692 Climbing New York Center
10:33PM 42.9092 -76.1872 218° Southwest 289 333 10,000 857 Climbing New York Center
10:34PM 42.8283 -76.2256 199° South 295 339 11,500 2,000 Climbing New York Center
10:35PM 42.7283 -76.1861 164° South 305 351 14,000 1,721 Climbing New York Center
10:36PM 42.6258 -76.1494 165° South 353 406 15,000 446 Climbing New York Center
10:37PM 42.5236 -76.1100 164° South 375 432 14,900  Descending New York Center
10:38PM 42.4253 -76.0767 166° South 375 432 15,000  Climbing New York Center
10:39PM 42.3122 -76.0397 166° South 375 432 14,900 -51 Descending New York Center
10:40PM 42.2119 -76.0036 165° South 375 432 14,900  Level New York Center
10:41PM 42.1133 -75.9706 166° South 370 426 14,900 50 Level New York Center
10:42PM 42.0108 -75.9375 167° South 377 434 15,000 50 Climbing New York Center
10:43PM 41.9206 -75.9081 166° South 377 434 15,000 -150 Level New York Center
10:44PM 41.8181 -75.8722 165° South 377 434 14,700 -1,210 Descending New York Center
10:45PM 41.7069 -75.8389 167° South 372 428 12,600 -1,328 Descending New York Center
10:46PM 41.6106 -75.8064 166° South 372 428 12,000 -295 Descending New York Center
10:47PM 41.5344 -75.7814 166° South 372 428 12,000  Level New York Center
10:48PM 41.4278 -75.7431 165° South 372 428 12,000  Level New York Center
10:49PM 41.3314 -75.7083 165° South 372 428 12,000  Level New York Center
10:50PM 41.2239 -75.6867 171° South 372 428 12,000  Level New York Center
10:51PM 41.1342 -75.6883 181° South 366 421 12,000  Level New York Center
10:52PM 41.0344 -75.6867 179° South 366 421 12,000  Level New York Center
10:53PM 40.9239 -75.6869 180° South 366 421 12,000  Level New York Center
10:54PM 40.8364 -75.6861 180° South 366 421 12,000  Level New York Center
10:55PM 40.7261 -75.6864 180° South 366 421 12,000 -103 Level New York Center
10:56PM 40.6303 -75.6850 179° South 361 415 11,800 -203 Descending New York Center
10:57PM 40.5472 -75.6269 152° Southeast 337 388 11,600 -639 Descending New York Center
10:58PM 40.5011 -75.5283 122° Southeast 319 367 10,500 -780 Descending New York Center
10:59PM 40.4425 -75.4314 128° Southeast 311 358 10,000 -254 Descending New York Center
11:00PM 40.3714 -75.3858 154° Southeast 289 333 10,000 -99 Level New York Center
11:01PM 40.2958 -75.3428 157° South 288 331 9,800 -738 Descending New York Center
11:02PM 40.2306 -75.3058 157° South 294 338 8,500 -908 Descending New York Center
11:03PM 40.1511 -75.2625 157° South 284 327 8,000 -391 Descending New York Center
11:03PM 40.1167 -75.2333 147° Southeast 283 326 7,900 -923 Descending Philadelphia TRACON
11:04PM 40.0833 -75.1500 118° Southeast 280 322 6,600 -1,100 Descending Philadelphia TRACON
11:05PM 40.0500 -75.0500 114° Southeast 281 323 5,700 -800 Descending Philadelphia TRACON
11:06PM 40.0333 -74.9667 105° East 265 305 5,000 -350 Descending Philadelphia TRACON
11:07PM 40.0167 -74.8833 105° East 198 228 5,000 -500 Level Philadelphia TRACON
11:08PM 39.9667 -74.8500 153° Southeast 196 226 4,000 -500 Descending Philadelphia TRACON
11:09PM 39.9333 -74.9000 229° Southwest 192 221 4,000  Level Philadelphia TRACON
11:11PM 39.9167 -74.9667 252° West 170 196 4,000 -318 Level Philadelphia TRACON
11:12PM 39.9167 -75.0333 270° West 172 198 3,300 -750 Descending Philadelphia TRACON
11:13PM 39.9000 -75.0833 247° West 158 182 2,500 -850 Descending Philadelphia TRACON
11:14PM 39.8833 -75.1333 247° West 144 166 1,600 -800 Descending Philadelphia TRACON
11:15PM 39.8833 -75.1833 270° West 121 139 900 -632 Descending Philadelphia TRACON
11:15PM 39.8667 -75.2167 237° Southwest 120 138 400 -556 Descending Philadelphia TRACON
11:17PM 39.8667 -75.2333 256° West  Level FlightAware Approximate
11:24PM 39.8722 -75.2409 256° West  Level Estimated